Torna al catalogo

STARLINK-33967

AttivoComunicazioniVLEO
NORAD 64027·PAYLOAD·🇺🇸 United States

Lanciato May 16, 2025 da Vandenberg Space Force Base

Loading…

Prossimi Passaggi (prossime 24 ore)

TLE

AggiornatoSource: CelesTrak SupGP

Epoca: Sep 15, 2026, 02:17 UTC

1 64027C 25102F   26258.09562500  .00083626  00000+0  29091-2 0  2584
2 64027  70.0009 355.3456 0003283 268.5341  39.4787 15.29536804    15

Traccia STARLINK-33967 in tempo reale con AllMySat

Download on the App Store